Index Module Time&Date Lat. Long. Hardware Temperature Seawater Temperature Conductivity (µS/cm) Salinity (ppt) No. of Satellites Signal strength
240252 temperature2 14:29 13/10/2021 35.66039 139.67686 20.5 19.3 19.4 0.0 11.0 5
240251 temperature2 13:56 13/10/2021 35.66042 139.67671 20.4 19.3 19.4 0.0 11.0 5
240250 temperature2 13:23 13/10/2021 35.660744 139.67711 20.4 19.3 19.4 0.0 7.0 5
240249 temperature2 12:51 13/10/2021 35.660397 139.6768 20.6 19.3 19.4 0.0 9.0 5
240248 temperature2 12:18 13/10/2021 35.660347 139.67673 20.6 19.5 19.4 0.0 8.0 5
240247 temperature2 11:45 13/10/2021 35.66028 139.67691 20.5 19.3 19.4 0.0 8.0 5
240246 temperature2 11:13 13/10/2021 35.66041 139.67685 20.6 19.3 19.4 0.0 9.0 5
240245 temperature2 10:40 13/10/2021 35.660503 139.6769 20.6 19.3 19.4 0.0 9.0 5
240244 temperature2 10:07 13/10/2021 35.66048 139.67671 20.6 19.3 19.4 0.0 8.0 5
240243 temperature2 09:34 13/10/2021 35.660404 139.67664 20.6 19.3 19.4 0.0 6.0 5
240242 temperature2 09:02 13/10/2021 35.660286 139.67664 20.6 19.3 19.4 0.0 9.0 5
240241 temperature2 08:29 13/10/2021 35.660614 139.67651 20.6 19.6 19.4 0.0 8.0 5
240240 temperature2 07:56 13/10/2021 35.660397 139.67662 20.6 19.4 19.4 0.0 8.0 5
240239 temperature2 07:24 13/10/2021 35.660454 139.67662 20.6 19.6 19.4 0.0 10.0 5
240238 temperature2 06:51 13/10/2021 35.660454 139.67671 20.6 19.6 19.7 0.0 10.0 5
240237 temperature2 06:18 13/10/2021 35.660465 139.67667 20.6 19.6 19.9 0.0 9.0 5
240236 temperature2 05:46 13/10/2021 35.66041 139.67673 20.6 19.8 19.8 0.0 10.0 5
240235 temperature2 05:13 13/10/2021 35.66041 139.6766 20.9 19.8 19.9 0.0 9.0 5
240234 temperature2 04:40 13/10/2021 35.660458 139.67664 21.1 19.8 19.9 0.0 9.0 5
240233 temperature2 04:07 13/10/2021 35.660427 139.67667 21.1 19.8 19.9 0.0 9.0 5
240232 temperature2 03:34 13/10/2021 35.66042 139.67664 21.1 19.8 19.9 0.0 8.0 5
240231 temperature2 03:01 13/10/2021 35.660637 139.67656 21.1 20.3 19.9 0.0 9.0 5
240230 temperature2 02:29 13/10/2021 35.66055 139.67686 21.1 20.2 20.3 0.0 10.0 5
240229 temperature2 01:56 13/10/2021 35.660374 139.67685 21.1 20.3 20.3 0.0 6.0 5
240228 temperature2 01:23 13/10/2021 35.660484 139.67665 21.1 20.3 20.4 0.0 10.0 5
240227 temperature2 00:51 13/10/2021 35.660305 139.67674 21.1 20.3 20.4 0.0 8.0 5
240226 temperature2 00:18 13/10/2021 35.660423 139.67665 21.2 20.3 20.4 0.0 9.0 5
240225 temperature2 23:45 12/10/2021 35.660343 139.67668 21.5 20.3 20.4 0.0 9.0 5
240224 temperature2 23:13 12/10/2021 35.660347 139.67674 21.6 20.3 20.4 0.0 8.0 5
240223 temperature2 22:40 12/10/2021 35.660385 139.67674 21.6 20.4 20.5 0.0 8.0 5
240222 temperature2 22:07 12/10/2021 35.66026 139.67699 21.6 20.7 20.4 0.0 7.0 5
240221 temperature2 21:35 12/10/2021 35.660282 139.6768 21.6 20.7 20.8 0.0 8.0 5
240220 temperature2 21:02 12/10/2021 35.66026 139.67693 21.6 20.8 20.9 0.0 7.0 5
240219 temperature2 20:29 12/10/2021 35.660477 139.67674 21.8 20.8 20.9 0.0 8.0 5
240218 temperature2 19:57 12/10/2021 35.660217 139.67685 21.8 20.8 20.9 0.0 8.0 5
240217 temperature2 19:24 12/10/2021 35.66033 139.67668 21.8 20.8 20.9 0.0 8.0 5
240216 temperature2 18:51 12/10/2021 35.66036 139.67677 22.1 20.8 20.9 0.0 9.0 5
240215 temperature2 18:19 12/10/2021 35.66055 139.67662 22.1 20.8 20.9 0.0 9.0 5
240214 temperature2 17:46 12/10/2021 35.660442 139.67671 22.1 20.8 20.9 0.0 9.0 5
240213 temperature2 17:13 12/10/2021 35.660362 139.6767 22.1 21.0 21.0 0.0 7.0 5
240212 temperature2 16:41 12/10/2021 35.660587 139.67673 22.1 21.2 21.2 0.0 8.0 5
240211 temperature2 16:08 12/10/2021 35.660755 139.67682 22.1 21.3 21.3 0.0 8.0 5
240210 temperature2 15:35 12/10/2021 35.66064 139.67691 22.1 21.3 21.3 0.0 9.0 5
240209 temperature2 15:03 12/10/2021 35.660458 139.67693 22.1 21.3 21.3 0.0 8.0 5
240208 temperature2 14:30 12/10/2021 35.66041 139.67665 22.2 21.3 21.3 0.0 8.0 5
240207 temperature2 13:57 12/10/2021 35.660587 139.67679 22.3 21.3 21.3 0.0 9.0 5
240206 temperature2 13:24 12/10/2021 35.66057 139.67677 22.5 21.3 21.3 0.0 11.0 5
240205 temperature2 12:51 12/10/2021 35.66039 139.67673 22.5 21.3 21.3 0.0 10.0 5
240204 temperature2 12:19 12/10/2021 35.66037 139.67668 22.5 21.4 21.3 0.0 9.0 5
240203 temperature2 11:46 12/10/2021 35.660454 139.6766 22.5 21.3 21.4 0.0 9.0 5
240202 temperature2 11:13 12/10/2021 35.660416 139.67665 22.5 21.5 21.3 0.0 9.0 5
240201 temperature2 10:41 12/10/2021 35.660454 139.67673 22.5 21.6 21.5 0.0 7.0 5
240200 temperature2 10:08 12/10/2021 35.660374 139.67676 22.5 21.6 21.8 0.0 7.0 5
240199 temperature2 09:35 12/10/2021 35.660366 139.6768 22.5 21.5 21.8 0.0 9.0 5
240198 temperature2 09:02 12/10/2021 35.66032 139.6766 22.5 21.4 21.8 0.0 9.0 5
240197 temperature2 08:30 12/10/2021 35.66043 139.67682 22.5 21.4 21.8 0.0 10.0 5
240196 temperature2 07:57 12/10/2021 35.660503 139.6768 22.5 21.7 21.8 0.0 8.0 5
240195 temperature2 07:24 12/10/2021 35.660408 139.67673 22.5 21.6 21.8 0.0 11.0 5
240194 temperature2 06:52 12/10/2021 35.660427 139.67664 22.5 21.6 21.8 0.0 9.0 5
240193 temperature2 06:19 12/10/2021 35.660378 139.67667 22.5 21.7 21.8 0.0 11.0 5
240192 temperature2 05:46 12/10/2021 35.660397 139.6767 22.5 21.7 21.8 0.0 9.0 5
240191 temperature2 05:14 12/10/2021 35.66042 139.67665 22.5 21.7 21.8 0.0 10.0 5
240190 temperature2 04:41 12/10/2021 35.660587 139.67667 22.5 21.7 21.8 0.0 8.0 5
240189 temperature2 04:08 12/10/2021 35.6604 139.67668 22.7 21.7 21.8 0.0 9.0 5
240188 temperature2 03:35 12/10/2021 35.66034 139.67662 22.9 21.8 22.0 0.0 9.0 5
240187 temperature2 03:03 12/10/2021 35.66062 139.67667 23.0 21.8 21.8 0.0 11.0 5
240186 temperature2 02:29 12/10/2021 35.66053 139.67674 23.0 21.8 22.3 0.0 9.0 5
240185 temperature2 01:56 12/10/2021 35.66037 139.67665 23.0 22.1 22.2 0.0 9.0 5
240184 temperature2 01:24 12/10/2021 35.660374 139.6767 23.0 22.1 22.3 0.0 9.0 5
240183 temperature2 00:51 12/10/2021 35.66044 139.67668 23.0 22.1 22.3 0.0 11.0 5
240182 temperature2 23:46 11/10/2021 35.660423 139.67691 23.0 22.2 22.3 0.0 10.0 5
240181 temperature2 23:13 11/10/2021 35.66036 139.67679 23.0 22.2 22.3 0.0 9.0 5
240180 temperature2 22:40 11/10/2021 35.66044 139.67679 23.0 22.2 22.3 0.0 10.0 5
240179 temperature2 22:08 11/10/2021 35.660233 139.67654 23.0 22.2 22.3 0.0 8.0 5
240178 temperature2 21:35 11/10/2021 35.660378 139.6767 23.1 22.2 22.3 0.0 10.0 5
240177 temperature2 21:02 11/10/2021 35.660435 139.67671 23.0 22.3 22.4 0.0 9.0 5
240176 temperature2 20:30 11/10/2021 35.660545 139.67648 23.2 22.2 22.3 0.0 11.0 5
240175 temperature2 19:57 11/10/2021 35.660275 139.67685 23.2 22.5 22.6 0.0 8.0 5
240174 temperature2 19:24 11/10/2021 35.6604 139.6767 23.5 22.3 22.7 0.0 9.0 5
240173 temperature2 18:51 11/10/2021 35.66046 139.67667 23.4 22.2 22.8 0.0 9.0 5
240172 temperature2 18:19 11/10/2021 35.660534 139.67657 23.4 22.2 22.8 0.0 9.0 5
240171 temperature2 17:46 11/10/2021 35.660526 139.67656 23.4 22.3 22.6 0.0 9.0 5
240170 temperature2 17:13 11/10/2021 35.660477 139.67662 23.5 22.3 22.7 0.0 8.0 5
240169 temperature2 16:41 11/10/2021 35.66035 139.67679 23.3 22.2 22.7 0.0 9.0 5
240168 temperature2 16:08 11/10/2021 35.66038 139.67683 23.5 22.3 22.7 0.0 10.0 5
240167 temperature2 15:35 11/10/2021 35.66031 139.67673 23.4 22.2 22.6 0.0 10.0 5
240166 temperature2 15:02 11/10/2021 35.660427 139.67693 23.1 22.2 22.4 0.0 9.0 5
240165 temperature2 14:29 11/10/2021 35.660397 139.67671 23.0 22.2 22.3 0.0 11.0 5
240164 temperature2 13:57 11/10/2021 35.660507 139.67683 23.0 22.2 22.3 0.0 11.0 5
240163 temperature2 13:24 11/10/2021 35.66105 139.67725 23.0 22.2 22.3 0.0 11.0 5
240162 temperature2 12:51 11/10/2021 35.660446 139.67676 23.0 22.2 22.3 0.0 12.0 5
240161 temperature2 12:18 11/10/2021 35.660297 139.6767 23.0 22.2 22.3 0.0 10.0 5
240160 temperature2 11:45 11/10/2021 35.66035 139.67664 23.0 21.8 22.3 0.0 11.0 5
240159 temperature2 11:13 11/10/2021 35.66045 139.67665 23.0 21.7 21.8 0.0 10.0 5
240158 temperature2 10:40 11/10/2021 35.6604 139.67668 22.5 21.4 21.8 0.0 9.0 5
240157 temperature2 10:07 11/10/2021 35.660458 139.67671 22.5 21.4 21.4 0.0 10.0 5
240156 temperature2 09:34 11/10/2021 35.660416 139.67664 22.3 21.3 21.3 0.0 9.0 5
240155 temperature2 09:01 11/10/2021 35.66036 139.67662 22.1 21.2 21.3 0.0 9.0 5
240154 temperature2 08:28 11/10/2021 35.660385 139.6767 22.1 20.8 21.3 0.0 8.0 5
240153 temperature2 07:56 11/10/2021 35.66037 139.67686 21.8 20.8 21.0 0.0 10.0 5
240152 temperature2 07:23 11/10/2021 35.66043 139.67674 21.6 20.8 20.9 0.0 8.0 5
240151 temperature2 06:50 11/10/2021 35.660442 139.67667 21.9 20.8 20.9 0.0 9.0 5
240150 temperature2 06:18 11/10/2021 35.66041 139.67674 21.8 20.8 20.9 0.0 8.0 5
240149 temperature2 05:45 11/10/2021 35.660507 139.6768 22.1 20.8 20.9 0.0 7.0 5
240148 temperature2 05:12 11/10/2021 35.660595 139.6768 22.1 20.8 20.9 0.0 10.0 5
240147 temperature2 04:39 11/10/2021 35.660477 139.6767 22.1 20.9 21.0 0.0 9.0 5
240146 temperature2 04:07 11/10/2021 35.66054 139.6767 22.1 21.1 21.2 0.0 8.0 5
240145 temperature2 03:34 11/10/2021 35.660408 139.67659 22.1 21.1 21.3 0.0 10.0 5
240144 temperature2 03:01 11/10/2021 35.66057 139.67671 22.1 21.3 21.3 0.0 10.0 5
240143 temperature2 02:28 11/10/2021 35.660477 139.67674 22.1 21.3 21.3 0.0 9.0 5
240142 temperature2 01:55 11/10/2021 35.66036 139.67668 22.1 21.3 21.3 0.0 8.0 5
240141 temperature2 01:23 11/10/2021 35.660393 139.67665 22.1 21.3 21.3 0.0 9.0 5
240140 temperature2 00:50 11/10/2021 35.660427 139.67667 22.4 21.3 21.3 0.0 9.0 5
240139 temperature2 00:17 11/10/2021 35.66042 139.67673 22.5 21.3 21.6 0.0 9.0 5
240138 temperature2 23:45 10/10/2021 35.6603 139.67662 22.5 21.4 21.8 0.0 9.0 5
240137 temperature2 23:12 10/10/2021 35.660347 139.67676 22.5 21.4 21.8 0.0 7.0 5
240136 temperature2 22:39 10/10/2021 35.66056 139.6766 22.5 21.7 21.8 0.0 7.0 5
240135 temperature2 22:07 10/10/2021 35.660606 139.67667 22.5 21.7 21.8 0.0 5.0 5
240134 temperature2 21:33 10/10/2021 35.660473 139.6766 22.5 21.7 21.8 0.0 7.0 5
240133 temperature2 21:00 10/10/2021 35.660385 139.67674 22.5 21.7 21.8 0.0 8.0 5
240132 temperature2 20:28 10/10/2021 35.660267 139.6767 22.5 21.7 21.8 0.0 9.0 5
240131 temperature2 19:54 10/10/2021 35.6604 139.67673 22.5 21.7 21.8 0.0 6.0 5
240130 temperature2 19:22 10/10/2021 35.660458 139.67671 22.5 21.7 21.8 0.0 9.0 5
240129 temperature2 18:49 10/10/2021 35.66043 139.67674 22.7 21.7 22.1 0.0 11.0 5
240128 temperature2 18:16 10/10/2021 35.660526 139.6766 23.0 21.9 22.2 0.0 10.0 5
240127 temperature2 17:43 10/10/2021 35.660328 139.67676 23.0 22.2 22.3 0.0 10.0 5
240126 temperature2 17:11 10/10/2021 35.66039 139.67668 23.0 22.2 22.3 0.0 9.0 5
240125 temperature2 16:38 10/10/2021 35.660557 139.67674 23.0 22.2 22.3 0.0 10.0 5
240124 temperature2 16:05 10/10/2021 35.660423 139.67671 23.0 21.8 22.3 0.0 11.0 5
240123 temperature2 15:32 10/10/2021 35.66034 139.67673 23.0 22.2 22.3 0.0 10.0 5
240122 temperature2 14:59 10/10/2021 35.660316 139.67685 23.0 22.1 22.3 0.0 10.0 5
240121 temperature2 14:26 10/10/2021 35.66055 139.67686 23.0 21.8 22.3 0.0 8.0 5
240120 temperature2 13:53 10/10/2021 35.66065 139.67691 23.0 21.8 22.1 0.0 8.0 4
240119 temperature2 13:20 10/10/2021 35.660553 139.6768 23.0 21.7 21.9 0.0 9.0 5
240118 temperature2 12:47 10/10/2021 35.660446 139.67662 22.8 21.7 21.8 0.0 7.0 5
240117 temperature2 12:14 10/10/2021 35.660408 139.67668 22.7 21.7 21.8 0.0 10.0 5
240116 temperature2 11:42 10/10/2021 35.66041 139.67665 22.6 21.7 21.8 0.0 8.0 5
240115 temperature2 11:09 10/10/2021 35.66048 139.67691 22.5 21.4 21.8 0.0 8.0 5
240114 temperature2 10:36 10/10/2021 35.660595 139.67677 22.5 21.3 21.3 0.0 11.0 5
240113 temperature2 10:03 10/10/2021 35.660534 139.67665 22.5 21.3 21.4 0.0 10.0 5
240112 temperature2 09:30 10/10/2021 35.660637 139.67656 22.3 21.3 21.3 0.0 11.0 5
240111 temperature2 08:57 10/10/2021 35.66047 139.67654 22.3 21.3 21.3 0.0 10.0 5
240110 temperature2 08:24 10/10/2021 35.660465 139.6766 22.3 21.3 21.3 0.0 11.0 5
240109 temperature2 07:52 10/10/2021 35.66027 139.67667 22.1 21.3 21.3 0.0 11.0 5
240108 temperature2 07:19 10/10/2021 35.66035 139.67673 22.1 21.3 21.3 0.0 12.0 5
240107 temperature2 06:46 10/10/2021 35.660385 139.67665 22.1 21.3 21.3 0.0 9.0 5
240106 temperature2 06:14 10/10/2021 35.660465 139.67671 22.1 21.3 21.3 0.0 11.0 5
240105 temperature2 05:41 10/10/2021 35.66045 139.67674 22.1 21.3 21.3 0.0 10.0 5
240104 temperature2 05:08 10/10/2021 35.66054 139.67673 22.1 21.3 21.3 0.0 10.0 5
240103 temperature2 04:36 10/10/2021 35.66048 139.67673 22.3 21.3 21.3 0.0 10.0 5
240102 temperature2 04:02 10/10/2021 35.66067 139.67664 22.4 21.3 21.3 0.0 10.0 5
240101 temperature2 03:29 10/10/2021 35.6605 139.67674 22.5 21.5 21.4 0.0 9.0 5
240100 temperature2 02:57 10/10/2021 35.66059 139.67685 22.5 21.6 21.8 0.0 11.0 5
240099 temperature2 02:24 10/10/2021 35.66035 139.67693 22.5 21.7 21.8 0.0 10.0 5
240098 temperature2 01:51 10/10/2021 35.66041 139.67685 22.5 21.5 21.6 0.0 11.0 5
240097 temperature2 01:18 10/10/2021 35.660385 139.67665 22.5 21.7 21.8 0.0 8.0 5
240096 temperature2 00:46 10/10/2021 35.6605 139.67662 22.5 21.7 21.8 0.0 10.0 5
240095 temperature2 00:13 10/10/2021 35.66039 139.67665 22.8 21.7 21.8 0.0 12.0 5
240094 temperature2 23:40 09/10/2021 35.660336 139.67662 23.0 21.7 21.8 0.0 10.0 5
240093 temperature2 23:08 09/10/2021 35.6603 139.67682 23.0 21.8 22.0 0.0 11.0 5
240092 temperature2 22:35 09/10/2021 35.660374 139.67671 23.0 22.0 22.2 0.0 10.0 5
240091 temperature2 22:02 09/10/2021 35.66029 139.67665 23.0 22.2 22.3 0.0 8.0 5
240090 temperature2 21:30 09/10/2021 35.6605 139.67668 23.0 22.2 22.3 0.0 8.0 5
240089 temperature2 20:57 09/10/2021 35.660442 139.67667 23.0 22.2 22.3 0.0 9.0 5
240088 temperature2 20:24 09/10/2021 35.660435 139.6767 23.0 22.2 22.3 0.0 8.0 5
240087 temperature2 19:52 09/10/2021 35.66048 139.67671 23.0 22.2 22.3 0.0 9.0 5
240086 temperature2 19:19 09/10/2021 35.66048 139.67674 23.0 22.2 22.3 0.0 10.0 5
240085 temperature2 18:46 09/10/2021 35.66044 139.67683 23.0 22.2 22.3 0.0 11.0 5
240084 temperature2 18:13 09/10/2021 35.660408 139.67677 23.3 22.2 22.3 0.0 7.0 5
240083 temperature2 17:41 09/10/2021 35.660263 139.67674 23.5 22.6 22.8 0.0 9.0 5
240082 temperature2 17:08 09/10/2021 35.660507 139.67676 23.5 22.7 22.8 0.0 8.0 5
240081 temperature2 16:35 09/10/2021 35.66045 139.67671 23.5 22.7 22.8 0.0 9.0 5
240080 temperature2 16:02 09/10/2021 35.66048 139.6767 23.5 22.7 22.8 0.0 11.0 5
240079 temperature2 15:29 09/10/2021 35.660416 139.67674 23.6 22.7 22.8 0.0 1.0 5
240078 temperature2 14:57 09/10/2021 35.660313 139.67664 23.5 22.7 22.8 0.0 9.0 5
240077 temperature2 14:24 09/10/2021 35.6604 139.67659 23.5 22.7 22.8 0.0 9.0 5
240076 temperature2 13:51 09/10/2021 35.660408 139.67668 23.5 22.7 22.8 0.0 9.0 5
240075 temperature2 13:18 09/10/2021 35.660492 139.67676 23.5 22.7 22.8 0.0 11.0 5
240074 temperature2 12:45 09/10/2021 35.6603 139.67671 23.5 22.5 22.8 0.0 10.0 5
240073 temperature2 12:12 09/10/2021 35.660328 139.67668 23.5 22.4 22.6 0.0 10.0 5
240072 temperature2 11:39 09/10/2021 35.66037 139.67665 23.5 22.2 22.3 0.0 9.0 5
240071 temperature2 11:06 09/10/2021 35.660534 139.67679 23.3 22.2 22.3 0.0 11.0 5
240070 temperature2 10:33 09/10/2021 35.660454 139.67673 23.0 21.7 22.3 0.0 11.0 5
240069 temperature2 10:00 09/10/2021 35.660477 139.67686 23.0 21.7 21.8 0.0 10.0 5
240068 temperature2 09:28 09/10/2021 35.66044 139.6768 22.5 21.6 21.8 0.0 9.0 5
240067 temperature2 08:55 09/10/2021 35.6605 139.67653 22.5 21.7 21.8 0.0 11.0 5
240066 temperature2 08:22 09/10/2021 35.66037 139.67671 23.0 21.7 21.8 0.0 9.0 5
240065 temperature2 07:49 09/10/2021 35.660416 139.67674 22.5 21.7 21.8 0.0 10.0 5
240064 temperature2 07:17 09/10/2021 35.66043 139.67667 22.5 21.3 21.5 0.0 10.0 5
240063 temperature2 06:44 09/10/2021 35.660435 139.67674 22.5 21.3 21.5 0.0 11.0 5
240062 temperature2 06:11 09/10/2021 35.66039 139.67656 22.4 21.4 21.5 0.0 8.0 5
240061 temperature2 05:38 09/10/2021 35.660294 139.67659 22.5 21.3 21.3 0.0 10.0 5
240060 temperature2 05:05 09/10/2021 35.66049 139.67657 22.5 21.4 21.5 0.0 10.0 5
240059 temperature2 04:32 09/10/2021 35.660484 139.67667 22.5 21.6 21.8 0.0 12.0 5
240058 temperature2 03:58 09/10/2021 35.660263 139.67679 22.5 21.6 21.7 0.0 9.0 5
240057 temperature2 03:25 09/10/2021 35.660515 139.67676 22.5 21.7 21.8 0.0 9.0 5
240056 temperature2 02:17 09/10/2021 35.660385 139.67667 22.5 21.7 21.8 0.0 11.0 5
240055 temperature2 01:44 09/10/2021 35.660305 139.6767 22.7 21.7 21.8 0.0 9.0 5
240054 temperature2 01:11 09/10/2021 35.660477 139.67664 22.9 21.7 21.8 0.0 11.0 5
240053 temperature2 00:38 09/10/2021 35.660366 139.67665 23.0 21.7 21.8 0.0 10.0 5
240052 temperature2 00:05 09/10/2021 35.660393 139.6767 23.0 22.0 22.0 0.0 11.0 5
240051 temperature2 23:32 08/10/2021 35.66044 139.6765 23.0 21.9 22.3 0.0 10.0 5
240050 temperature2 22:59 08/10/2021 35.66046 139.67677 23.0 22.1 22.3 0.0 10.0 5
240049 temperature2 22:26 08/10/2021 35.660397 139.67674 23.0 22.2 22.3 0.0 9.0 5
240048 temperature2 21:21 08/10/2021 35.66035 139.67679 23.0 22.2 22.3 0.0 11.0 5
240047 temperature2 20:48 08/10/2021 35.660328 139.6766 23.0 22.2 22.3 0.0 8.0 5
240046 temperature2 20:14 08/10/2021 35.660683 139.67645 23.1 22.2 22.3 0.0 8.0 5
240045 temperature2 19:41 08/10/2021 35.660397 139.67671 23.1 22.2 22.3 0.0 11.0 5
240044 temperature2 19:08 08/10/2021 35.660522 139.6765 23.0 22.2 22.3 0.0 10.0 5
240043 temperature2 18:35 08/10/2021 35.660393 139.67656 23.0 22.2 22.3 0.0 9.0 5
240042 temperature2 18:02 08/10/2021 35.66038 139.67665 23.1 22.2 22.3 0.0 10.0 5
240041 temperature2 17:29 08/10/2021 35.66045 139.67653 23.1 22.2 22.3 0.0 9.0 5
240040 temperature2 16:57 08/10/2021 35.66042 139.67665 23.0 22.2 22.3 0.0 8.0 5
240039 temperature2 16:24 08/10/2021 35.66037 139.67676 23.1 22.2 22.3 0.0 8.0 5
240038 temperature2 15:51 08/10/2021 35.660213 139.67644 23.0 22.2 22.3 0.0 9.0 5
240037 temperature2 15:18 08/10/2021 35.660244 139.67645 23.0 22.2 22.3 0.0 10.0 5
240036 temperature2 14:45 08/10/2021 35.660423 139.67664 23.0 22.2 22.3 0.0 10.0 5
240035 temperature2 14:12 08/10/2021 35.66046 139.67653 23.0 22.2 22.3 0.0 9.0 5
240034 temperature2 13:39 08/10/2021 35.66037 139.67668 23.0 22.2 22.3 0.0 13.0 5
240033 temperature2 13:06 08/10/2021 35.66022 139.67674 23.0 21.9 22.3 0.0 11.0 5
240032 temperature2 12:33 08/10/2021 35.660557 139.67683 23.0 22.1 22.2 0.0 7.0 5
240031 temperature2 12:00 08/10/2021 35.66039 139.67686 23.0 21.9 21.9 0.0 10.0 5
240030 temperature2 11:27 08/10/2021 35.660507 139.67682 22.9 21.7 21.8 0.0 10.0 5
240029 temperature2 10:54 08/10/2021 35.660427 139.67674 22.5 21.6 21.8 0.0 11.0 5
240028 temperature2 10:21 08/10/2021 35.66041 139.67676 22.5 21.3 21.3 0.0 10.0 5
240027 temperature2 09:48 08/10/2021 35.660343 139.67665 22.5 21.3 21.3 0.0 8.0 5
240026 temperature2 09:15 08/10/2021 35.66033 139.67662 22.1 20.8 21.3 0.0 9.0 5
240025 temperature2 08:42 08/10/2021 35.660397 139.67673 22.0 20.8 21.0 0.0 10.0 5
240024 temperature2 08:09 08/10/2021 35.660458 139.67671 21.8 20.8 20.9 0.0 11.0 5
240023 temperature2 07:37 08/10/2021 35.660477 139.67664 21.6 20.7 20.9 0.0 11.0 5
240022 temperature2 07:03 08/10/2021 35.660522 139.67668 21.7 20.8 20.9 0.0 10.0 5
240021 temperature2 06:31 08/10/2021 35.66027 139.67676 21.6 20.8 20.9 0.0 11.0 5
240020 temperature2 05:58 08/10/2021 35.66065 139.67659 21.6 20.8 20.9 0.0 9.0 5
240019 temperature2 05:25 08/10/2021 35.660423 139.67645 21.6 20.8 20.9 0.0 12.0 5
240018 temperature2 04:52 08/10/2021 35.660324 139.67664 21.6 20.8 20.9 0.0 11.0 5
240017 temperature2 04:19 08/10/2021 35.66045 139.6767 21.6 20.8 20.9 0.0 11.0 5
240016 temperature2 03:47 08/10/2021 35.660393 139.67667 21.6 20.8 20.9 0.0 12.0 5
240015 temperature2 03:14 08/10/2021 35.66049 139.67651 21.8 20.8 20.9 0.0 11.0 5
240014 temperature2 02:41 08/10/2021 35.660465 139.67696 22.1 20.8 20.9 0.0 10.0 5
240013 temperature2 02:08 08/10/2021 35.660313 139.67667 22.1 20.8 20.9 0.0 10.0 5
240012 temperature2 01:35 08/10/2021 35.660378 139.67667 22.0 21.0 20.9 0.0 10.0 5
240011 temperature2 01:02 08/10/2021 35.66033 139.67668 22.1 21.0 21.1 0.0 10.0 5
240010 temperature2 00:30 08/10/2021 35.66036 139.67664 22.1 21.1 21.0 0.0 9.0 5
240009 temperature2 23:57 07/10/2021 35.66042 139.6767 22.1 21.3 21.1 0.0 10.0 5
240008 temperature2 23:24 07/10/2021 35.66043 139.6767 22.1 21.3 21.3 0.0 10.0 5
240007 temperature2 22:51 07/10/2021 35.660408 139.67671 22.1 21.3 21.3 0.0 9.0 5
240006 temperature2 22:19 07/10/2021 35.660385 139.67659 22.1 21.3 21.3 0.0 8.0 5
240005 temperature2 21:46 07/10/2021 35.66024 139.6766 22.1 21.3 21.3 0.0 10.0 5
240004 temperature2 21:13 07/10/2021 35.660343 139.67665 22.1 21.3 21.3 0.0 10.0 5
240003 temperature2 20:40 07/10/2021 35.66041 139.67659 22.1 21.3 21.3 0.0 11.0 5
240002 temperature2 20:07 07/10/2021 35.660362 139.67671 22.1 21.3 21.3 0.0 10.0 5
240001 temperature2 19:34 07/10/2021 35.66041 139.67668 22.1 21.3 21.3 0.0 2.0 5
240000 temperature2 19:02 07/10/2021 35.66036 139.67659 22.1 21.3 21.3 0.0 12.0 5
239999 temperature2 18:29 07/10/2021 35.66039 139.67659 22.1 21.3 21.3 0.0 9.0 5
239998 temperature2 17:56 07/10/2021 35.660343 139.6768 22.3 21.3 21.3 0.0 8.0 5
239997 temperature2 17:22 07/10/2021 35.660477 139.67662 22.2 21.3 21.3 0.0 9.0 5
239996 temperature2 16:50 07/10/2021 35.66041 139.6767 22.2 21.3 21.3 0.0 10.0 5
239995 temperature2 16:17 07/10/2021 35.66043 139.67668 22.4 21.3 21.3 0.0 12.0 5
239994 temperature2 15:44 07/10/2021 35.66044 139.67671 22.4 21.3 21.3 0.0 10.0 5
239993 temperature2 15:11 07/10/2021 35.660404 139.67653 22.4 21.3 21.3 0.0 10.0 5
239992 temperature2 14:38 07/10/2021 35.660427 139.67662 22.5 21.3 21.3 0.0 10.0 5
239991 temperature2 14:05 07/10/2021 35.660397 139.67647 22.4 21.3 21.3 0.0 10.0 5
239990 temperature2 13:32 07/10/2021 35.660583 139.67694 22.4 21.3 21.3 0.0 10.0 5
239989 temperature2 13:00 07/10/2021 35.66028 139.67667 22.2 21.3 21.3 0.0 8.0 5
239988 temperature2 12:27 07/10/2021 35.6603 139.6766 22.1 21.2 21.3 0.0 10.0 5
239987 temperature2 11:54 07/10/2021 35.660393 139.67667 22.1 21.3 21.3 0.0 10.0 5
239986 temperature2 11:21 07/10/2021 35.660393 139.67674 22.1 21.2 21.3 0.0 11.0 5
239985 temperature2 10:48 07/10/2021 35.660355 139.67668 22.1 21.3 21.3 0.0 13.0 5
239984 temperature2 10:16 07/10/2021 35.660477 139.6766 22.1 21.2 21.3 0.0 10.0 5
239983 temperature2 09:43 07/10/2021 35.6604 139.67674 22.1 21.1 21.3 0.0 9.0 5
239982 temperature2 09:10 07/10/2021 35.6605 139.67685 22.1 21.3 21.3 0.0 9.0 5
239981 temperature2 08:37 07/10/2021 35.660458 139.67682 22.1 21.1 21.2 0.0 11.0 5
239980 temperature2 08:04 07/10/2021 35.660316 139.67664 22.1 21.1 21.2 0.0 12.0 5
239979 temperature2 07:32 07/10/2021 35.660408 139.67664 22.1 21.2 21.2 0.0 11.0 5
239978 temperature2 06:59 07/10/2021 35.660355 139.6766 22.1 21.2 21.2 0.0 9.0 5
239977 temperature2 06:26 07/10/2021 35.660236 139.6767 22.1 21.2 21.3 0.0 12.0 5
239976 temperature2 05:53 07/10/2021 35.660416 139.67642 22.1 21.3 21.3 0.0 12.0 5
239975 temperature2 05:20 07/10/2021 35.660408 139.67656 22.4 21.3 21.3 0.0 12.0 5
239974 temperature2 04:48 07/10/2021 35.660385 139.67654 22.5 21.3 21.3 0.0 9.0 5
239973 temperature2 04:15 07/10/2021 35.66042 139.67673 22.5 21.5 21.3 0.0 11.0 5
239972 temperature2 03:42 07/10/2021 35.660343 139.6767 22.5 21.5 21.3 0.0 12.0 5
239971 temperature2 03:09 07/10/2021 35.66045 139.67657 22.5 21.7 21.7 0.0 11.0 5
239970 temperature2 02:36 07/10/2021 35.66041 139.67674 22.5 21.7 21.8 0.0 11.0 5
239969 temperature2 02:03 07/10/2021 35.660404 139.67677 22.5 21.7 21.8 0.0 10.0 5
239968 temperature2 01:30 07/10/2021 35.660435 139.67664 22.5 21.7 21.8 0.0 12.0 5
239967 temperature2 00:57 07/10/2021 35.66038 139.67665 22.6 21.7 21.8 0.0 9.0 5
239966 temperature2 00:25 07/10/2021 35.660385 139.67664 22.9 21.7 21.8 0.0 10.0 5
239965 temperature2 23:52 06/10/2021 35.660313 139.67682 23.0 22.1 21.8 0.0 10.0 5
239964 temperature2 23:19 06/10/2021 35.660336 139.67674 23.0 21.9 21.8 0.0 10.0 5
239963 temperature2 22:46 06/10/2021 35.660423 139.6767 23.0 22.2 22.0 0.0 10.0 5
239962 temperature2 22:13 06/10/2021 35.66016 139.67679 23.0 22.1 22.3 0.0 11.0 5
239961 temperature2 21:40 06/10/2021 35.66028 139.67682 23.0 22.2 22.3 0.0 11.0 5
239960 temperature2 21:08 06/10/2021 35.66037 139.67664 23.0 22.2 22.3 0.0 9.0 5
239959 temperature2 20:35 06/10/2021 35.660393 139.67685 23.4 22.2 22.3 0.0 9.0 5
239958 temperature2 20:02 06/10/2021 35.660294 139.67671 23.5 22.2 22.3 0.0 12.0 5
239957 temperature2 19:29 06/10/2021 35.660408 139.67667 23.5 22.6 22.3 0.0 10.0 5
239956 temperature2 18:56 06/10/2021 35.660385 139.6766 23.5 22.7 22.8 0.0 12.0 5
239955 temperature2 18:24 06/10/2021 35.660404 139.67657 23.5 22.7 22.8 0.0 8.0 5
239954 temperature2 17:51 06/10/2021 35.660362 139.67671 24.0 22.7 22.8 0.0 9.0 5
239953 temperature2 17:18 06/10/2021 35.660385 139.67662 24.0 23.1 23.0 0.0 9.0 5
239952 temperature2 16:45 06/10/2021 35.660385 139.67671 24.0 23.2 23.3 0.0 10.0 5
239951 temperature2 16:12 06/10/2021 35.660442 139.67664 24.0 23.2 23.2 0.0 12.0 5
239950 temperature2 15:39 06/10/2021 35.66041 139.67674 24.0 23.2 23.3 0.0 8.0 5
239949 temperature2 15:07 06/10/2021 35.66041 139.67657 24.0 23.2 23.3 0.0 10.0 5
239948 temperature2 14:33 06/10/2021 35.66041 139.6766 24.0 23.2 23.3 0.0 10.0 5
239947 temperature2 14:00 06/10/2021 35.66046 139.67674 24.0 23.1 23.3 0.0 10.0 5
239946 temperature2 13:27 06/10/2021 35.660446 139.67667 24.0 23.0 23.3 0.0 11.0 5
239945 temperature2 12:54 06/10/2021 35.66035 139.67656 24.0 22.7 22.8 0.0 9.0 5
239944 temperature2 12:21 06/10/2021 35.660336 139.67671 24.0 22.7 22.8 0.0 8.0 5
239943 temperature2 11:48 06/10/2021 35.66044 139.67662 23.9 22.7 22.8 0.0 12.0 5
239942 temperature2 11:16 06/10/2021 35.660477 139.67667 23.6 22.7 22.8 0.0 9.0 5
239941 temperature2 10:43 06/10/2021 35.660374 139.67654 23.5 22.5 22.3 0.0 9.0 5
239940 temperature2 10:10 06/10/2021 35.6604 139.67662 23.5 22.2 22.3 0.0 11.0 5
239939 temperature2 09:37 06/10/2021 35.660347 139.67645 23.0 21.8 21.8 0.0 12.0 5
239938 temperature2 09:04 06/10/2021 35.66043 139.67651 22.9 21.7 21.8 0.0 12.0 5
239937 temperature2 08:31 06/10/2021 35.660427 139.67673 22.5 21.6 21.7 0.0 11.0 5
239936 temperature2 07:58 06/10/2021 35.66047 139.67667 22.5 21.4 21.6 0.0 12.0 5
239935 temperature2 07:25 06/10/2021 35.660328 139.67668 22.5 21.3 21.3 0.0 9.0 5
239934 temperature2 06:52 06/10/2021 35.66034 139.67651 22.5 21.3 21.3 0.0 12.0 5
239933 temperature2 06:20 06/10/2021 35.66057 139.67654 22.5 21.5 21.3 0.0 13.0 5
239932 temperature2 06:03 06/10/2021 35.660404 139.67656 22.5 21.4 21.3 0.0 12.0 5
239931 temperature2 19:01 05/10/2021 35.66042 139.67665 23.5 22.7 22.8 0.0 11.0 5
239930 temperature2 18:28 05/10/2021 35.6604 139.67659 23.9 22.8 22.9 0.0 9.0 5
239929 temperature2 17:55 05/10/2021 35.66039 139.67668 23.5 22.7 22.8 0.0 10.0 5
239928 temperature2 17:22 05/10/2021 35.660404 139.6767 23.5 22.7 22.8 0.0 9.0 5
239927 temperature2 16:50 05/10/2021 35.660446 139.67671 23.5 22.8 22.8 0.0 10.0 5
239926 temperature2 16:17 05/10/2021 35.66049 139.67667 23.5 22.7 22.8 0.0 8.0 5
239925 temperature2 15:44 05/10/2021 35.659992 139.67714 27.9 26.6 27.2 0.0 7.0 5
239924 temperature2 15:11 05/10/2021 35.65993 139.67696 28.4 27.0 27.2 0.0 10.0 5
239923 temperature2 14:43 05/10/2021 35.66007 139.67715 28.4 26.6 27.2 0.0 8.0 5
239922 temperature2 14:10 05/10/2021 35.660057 139.6771 29.4 27.1 27.7 0.0 7.0 5
239921 temperature2 13:38 05/10/2021 35.65996 139.67723 28.5 26.6 27.2 0.0 10.0 5
239920 temperature2 09:18 05/10/2021 35.660015 139.67732 188.6 198.9 188.0 0.0 0.0 5
239919 temperature2 08:45 05/10/2021 35.660015 139.67732 186.0 195.9 185.6 0.0 7.0 5
239918 temperature2 08:12 05/10/2021 35.659946 139.67706 185.4 195.6 184.1 0.0 9.0 5
239917 temperature2 07:39 05/10/2021 35.66011 139.67686 184.8 194.6 183.9 0.0 7.0 5
239916 temperature2 07:06 05/10/2021 35.659927 139.67714 181.2 191.6 180.7 0.0 6.0 5
239915 temperature2 06:34 05/10/2021 35.65991 139.67729 180.7 191.2 180.5 0.0 8.0 5
239914 temperature2 06:01 05/10/2021 35.660053 139.67693 181.0 191.3 180.6 0.0 11.0 5
239913 temperature2 05:28 05/10/2021 35.66007 139.67714 180.9 191.3 180.6 0.0 9.0 5
239912 temperature2 04:55 05/10/2021 35.66009 139.67697 181.4 191.7 181.1 0.0 9.0 5
239911 temperature2 04:22 05/10/2021 35.659943 139.67711 182.1 192.4 181.7 0.0 10.0 5
239910 temperature2 03:50 05/10/2021 35.660095 139.67726 182.9 193.0 182.6 0.0 9.0 5
239909 temperature2 03:17 05/10/2021 35.660164 139.677 183.6 193.9 183.6 0.0 6.0 5
239908 temperature2 02:44 05/10/2021 35.660076 139.67711 184.0 194.3 184.1 0.0 7.0 5
239907 temperature2 02:11 05/10/2021 35.660107 139.67686 184.4 194.7 184.6 0.0 7.0 5
239906 temperature2 01:38 05/10/2021 35.659885 139.67705 184.5 195.0 185.0 0.0 7.0 5
239905 temperature2 01:05 05/10/2021 35.659973 139.67706 183.9 194.5 184.6 0.0 8.0 5
239904 temperature2 00:33 05/10/2021 35.66012 139.67697 184.3 194.9 185.1 0.0 7.0 5
239903 temperature2 00:00 05/10/2021 35.65982 139.67734 184.2 195.2 185.5 0.0 7.0 5
239902 temperature2 23:26 04/10/2021 35.66005 139.67656 184.7 195.6 186.0 0.0 6.0 5
239901 temperature2 22:18 04/10/2021 35.66002 139.6773 181.6 193.2 183.5 0.0 7.0 5
239900 temperature2 21:45 04/10/2021 35.660023 139.67728 179.5 191.0 181.1 0.0 4.0 5
239899 temperature2 21:12 04/10/2021 35.659927 139.67714 180.1 191.9 182.1 0.0 5.0 5
239898 temperature2 20:40 04/10/2021 35.660038 139.67703 180.6 192.7 182.1 0.0 5.0 5
239897 temperature2 20:07 04/10/2021 35.659744 139.67775 183.9 195.6 185.0 0.0 5.0 5
239896 temperature2 19:34 04/10/2021 35.66021 139.67688 187.3 199.1 188.0 0.0 5.0 5
239895 temperature2 19:01 04/10/2021 35.660015 139.67722 190.8 202.5 192.4 0.0 5.0 5
239894 temperature2 18:28 04/10/2021 35.659286 139.67746 191.7 203.3 193.4 0.0 4.0 5
239893 temperature2 17:56 04/10/2021 35.660145 139.67715 174.8 183.4 174.0 0.0 5.0 5
239892 temperature4 11:20 04/10/2021 35.660378 139.67668 21.1 20.3 20.4 0.0 0.0 5
239891 temperature4 10:47 04/10/2021 35.660378 139.67668 21.1 20.3 20.2 0.0 0.0 5
239890 temperature4 10:15 04/10/2021 35.660378 139.67668 21.0 19.8 19.9 0.0 0.0 5
239889 temperature4 09:42 04/10/2021 35.660378 139.67668 20.6 19.7 19.5 0.0 0.0 5
239888 temperature4 09:09 04/10/2021 35.660378 139.67668 20.6 19.6 19.4 0.0 0.0 5
239887 temperature4 08:37 04/10/2021 35.660378 139.67668 20.5 19.6 19.4 0.0 0.0 5
239886 temperature4 08:04 04/10/2021 35.660378 139.67668 20.5 19.4 19.4 0.0 0.0 5
239885 temperature4 07:32 04/10/2021 35.660378 139.67668 20.6 19.5 19.4 0.0 0.0 5
239884 temperature4 06:24 04/10/2021 35.660378 139.67668 20.6 19.5 19.4 0.0 0.0 5
239883 temperature4 05:51 04/10/2021 35.660378 139.67668 20.2 19.3 19.4 0.0 0.0 5
239882 temperature4 05:19 04/10/2021 35.660378 139.67668 20.6 19.6 19.4 0.0 0.0 5
239881 temperature4 04:46 04/10/2021 35.660378 139.67668 20.6 19.8 19.4 0.0 0.0 5
239880 temperature4 04:14 04/10/2021 35.660378 139.67668 20.6 19.8 19.5 0.0 0.0 5
239879 temperature4 03:41 04/10/2021 35.660378 139.67668 20.6 19.3 19.4 0.0 0.0 5
239878 temperature4 02:33 04/10/2021 35.660378 139.67668 20.5 19.5 19.4 0.0 0.0 5
239877 temperature4 02:01 04/10/2021 35.660378 139.67668 20.2 19.4 19.4 0.0 0.0 5
239876 temperature4 01:28 04/10/2021 35.660378 139.67668 20.3 19.4 19.4 0.0 0.0 5
239875 temperature4 00:20 04/10/2021 35.660378 139.67668 20.3 19.4 19.4 0.0 0.0 5
239874 temperature4 23:48 03/10/2021 35.660378 139.67668 20.5 19.5 19.4 0.0 0.0 5
239873 temperature4 22:40 03/10/2021 35.660378 139.67668 20.6 19.7 19.6 0.0 0.0 5
239872 temperature4 22:08 03/10/2021 35.660378 139.67668 20.6 19.8 19.5 0.0 0.0 5
239871 temperature4 21:35 03/10/2021 35.660378 139.67668 20.6 19.8 19.5 0.0 0.0 5
239870 temperature4 21:02 03/10/2021 35.660378 139.67668 20.6 19.6 19.4 0.0 0.0 5
239869 temperature4 20:30 03/10/2021 35.660378 139.67668 20.6 19.6 19.4 0.0 0.0 5
239868 temperature4 19:57 03/10/2021 35.660378 139.67668 20.6 19.7 19.4 0.0 0.0 5
239867 temperature4 19:24 03/10/2021 35.660378 139.67668 20.5 19.6 19.4 0.0 0.0 5
239866 temperature4 18:17 03/10/2021 35.660378 139.67668 20.6 19.5 19.4 0.0 0.0 5
239865 temperature4 17:44 03/10/2021 35.660378 139.67668 20.6 19.4 19.4 0.0 0.0 5
239864 temperature4 17:12 03/10/2021 35.660378 139.67668 20.1 19.3 19.4 0.0 0.0 5
239863 temperature4 14:54 03/10/2021 35.660378 139.67668 20.1 19.3 18.9 0.0 0.0 5
239862 temperature4 13:46 03/10/2021 35.660378 139.67668 19.9 19.0 18.9 0.0 0.0 5
239861 temperature4 13:12 03/10/2021 35.660378 139.67668 20.0 18.8 18.9 0.0 0.0 5
239860 temperature4 12:39 03/10/2021 35.660378 139.67668 19.8 18.8 18.9 0.0 0.0 5
239859 temperature4 12:07 03/10/2021 35.660378 139.67668 20.1 19.1 18.9 0.0 0.0 5
239858 temperature4 11:34 03/10/2021 35.660378 139.67668 19.8 18.9 18.9 0.0 0.0 5
239857 temperature4 11:01 03/10/2021 35.660378 139.67668 19.6 18.8 18.9 0.0 0.0 4
239856 temperature4 10:27 03/10/2021 35.660378 139.67668 19.6 18.8 18.9 0.0 0.0 5
239855 temperature4 09:19 03/10/2021 35.660378 139.67668 19.6 18.8 18.4 0.0 0.0 5
239854 temperature4 08:11 03/10/2021 35.660378 139.67668 19.5 18.5 18.4 0.0 0.0 5
239853 temperature4 07:39 03/10/2021 35.660378 139.67668 19.4 18.4 18.4 0.0 0.0 4
239852 temperature4 07:05 03/10/2021 35.660378 139.67668 19.4 18.4 18.4 0.0 0.0 5
239851 temperature4 06:32 03/10/2021 35.660378 139.67668 19.4 18.6 18.4 0.0 0.0 5
239850 temperature4 04:49 03/10/2021 35.660378 139.67668 19.3 18.3 18.4 0.0 0.0 4
239849 temperature4 02:29 03/10/2021 35.660378 139.67668 19.1 18.4 18.4 0.0 0.0 5
239848 temperature4 01:56 03/10/2021 35.660378 139.67668 19.1 18.4 18.4 0.0 0.0 5
239847 temperature4 01:24 03/10/2021 35.660378 139.67668 19.3 18.3 18.4 0.0 0.0 5
239846 temperature4 00:16 03/10/2021 35.660378 139.67668 19.2 18.4 18.4 0.0 0.0 5
239845 temperature4 23:43 02/10/2021 35.660378 139.67668 19.1 18.5 18.4 0.0 0.0 5
239844 temperature4 22:35 02/10/2021 35.660378 139.67668 19.2 18.4 18.4 0.0 0.0 5
239843 temperature4 22:02 02/10/2021 35.660378 139.67668 19.2 18.3 18.4 0.0 0.0 5
239842 temperature4 20:54 02/10/2021 35.660378 139.67668 19.1 18.3 18.4 0.0 0.0 5
239841 temperature4 20:21 02/10/2021 35.660378 139.67668 19.1 18.3 18.3 0.0 0.0 5
239840 temperature4 19:12 02/10/2021 35.660378 139.67668 19.1 18.3 18.2 0.0 0.0 5
239839 temperature4 16:23 02/10/2021 35.660378 139.67668 18.9 17.9 17.9 0.0 0.0 5
239838 temperature4 14:39 02/10/2021 35.660378 139.67668 18.6 17.8 17.9 0.0 0.0 5
239837 temperature4 12:56 02/10/2021 35.660378 139.67668 18.6 17.6 17.4 0.0 0.0 5
239836 temperature4 11:48 02/10/2021 35.660378 139.67668 18.6 17.6 17.4 0.0 0.0 5
239835 temperature4 10:40 02/10/2021 35.660378 139.67668 18.5 17.3 17.4 0.0 0.0 5
239834 temperature4 08:22 02/10/2021 35.660378 139.67668 18.1 17.3 17.0 0.0 0.0 5
239833 temperature4 07:49 02/10/2021 35.660378 139.67668 18.1 17.3 16.9 0.0 0.0 5
239832 temperature4 07:16 02/10/2021 35.660378 139.67668 18.1 17.3 16.9 0.0 0.0 4
239831 temperature4 06:42 02/10/2021 35.660378 139.67668 18.1 17.3 16.9 0.0 0.0 5
239830 temperature4 06:09 02/10/2021 35.660378 139.67668 18.1 17.3 16.9 0.0 0.0 5
239829 temperature4 05:36 02/10/2021 35.660378 139.67668 18.1 17.3 17.0 0.0 0.0 5
239828 temperature4 05:04 02/10/2021 35.660378 139.67668 18.1 17.3 17.2 0.0 0.0 5
239827 temperature4 04:31 02/10/2021 35.660378 139.67668 18.1 17.3 17.4 0.0 0.0 5
239826 temperature4 03:58 02/10/2021 35.660378 139.67668 18.1 17.3 17.4 0.0 0.0 5
239825 temperature4 03:25 02/10/2021 35.660378 139.67668 18.2 17.3 17.4 0.0 0.0 5
239824 temperature4 02:52 02/10/2021 35.660378 139.67668 18.2 17.4 17.4 0.0 0.0 5
239823 temperature4 02:20 02/10/2021 35.660378 139.67668 18.4 17.3 17.4 0.0 0.0 5
239822 temperature4 01:12 02/10/2021 35.660378 139.67668 18.6 17.5 17.5 0.0 0.0 5
239821 temperature4 00:39 02/10/2021 35.660378 139.67668 18.6 17.7 17.5 0.0 0.0 5
239820 temperature4 00:06 02/10/2021 35.660378 139.67668 18.6 17.7 17.7 0.0 0.0 5
239819 temperature4 22:58 01/10/2021 35.660378 139.67668 18.6 17.9 17.9 0.0 0.0 5
239818 temperature4 22:26 01/10/2021 35.660378 139.67668 18.7 17.8 17.9 0.0 0.0 5
239817 temperature4 21:53 01/10/2021 35.660378 139.67668 18.7 17.8 17.9 0.0 0.0 5
239816 temperature4 21:20 01/10/2021 35.660378 139.67668 18.9 18.0 17.9 0.0 0.0 5
239815 temperature4 20:47 01/10/2021 35.660378 139.67668 19.0 18.0 17.9 0.0 0.0 5
239814 temperature4 19:38 01/10/2021 35.660378 139.67668 19.1 18.0 17.9 0.0 0.0 5
239813 temperature4 19:05 01/10/2021 35.660378 139.67668 19.1 18.3 17.9 0.0 0.0 5
239812 temperature4 18:33 01/10/2021 35.660378 139.67668 19.1 18.0 17.9 0.0 0.0 5
239811 temperature4 17:25 01/10/2021 35.660378 139.67668 19.1 18.1 17.9 0.0 0.0 5
239810 temperature4 16:17 01/10/2021 35.660378 139.67668 19.1 18.3 18.4 0.0 0.0 5
239809 temperature4 15:44 01/10/2021 35.660378 139.67668 19.3 18.3 18.4 0.0 0.0 5
239808 temperature4 15:12 01/10/2021 35.660378 139.67668 19.6 18.3 18.4 0.0 0.0 5
239807 temperature4 14:04 01/10/2021 35.660378 139.67668 19.6 18.8 18.4 0.0 0.0 5
239806 temperature4 13:32 01/10/2021 35.660378 139.67668 19.6 18.7 18.9 0.0 0.0 5
239805 temperature4 12:24 01/10/2021 35.660378 139.67668 19.9 18.9 18.9 0.0 0.0 5
239804 temperature4 11:51 01/10/2021 35.660378 139.67668 20.1 19.0 18.9 0.0 0.0 5
239803 temperature4 11:19 01/10/2021 35.660378 139.67668 20.1 19.2 19.3 0.0 0.0 5
239802 temperature4 10:46 01/10/2021 35.660378 139.67668 20.1 19.3 19.4 0.0 0.0 5
239801 temperature4 10:14 01/10/2021 35.660378 139.67668 20.2 19.4 19.4 0.0 0.0 5
239800 temperature4 09:06 01/10/2021 35.660378 139.67668 20.6 19.6 19.4 0.0 0.0 5
239799 temperature4 08:33 01/10/2021 35.660378 139.67668 20.6 19.6 19.4 0.0 0.0 5
239798 temperature4 08:01 01/10/2021 35.660378 139.67668 20.6 19.8 19.8 0.0 0.0 5
239797 temperature4 07:28 01/10/2021 35.660378 139.67668 20.6 19.8 19.7 0.0 0.0 5
239796 temperature4 06:55 01/10/2021 35.660378 139.67668 20.6 19.8 19.9 0.0 0.0 5
239795 temperature4 06:23 01/10/2021 35.660378 139.67668 20.7 19.8 19.9 0.0 0.0 5
239794 temperature4 05:50 01/10/2021 35.660378 139.67668 20.7 20.0 19.9 0.0 0.0 5
239793 temperature4 05:18 01/10/2021 35.660378 139.67668 21.0 19.9 19.9 0.0 0.0 5
239792 temperature4 04:45 01/10/2021 35.660378 139.67668 21.1 20.0 19.9 0.0 0.0 5
239791 temperature4 04:12 01/10/2021 35.660378 139.67668 21.1 20.2 19.9 0.0 0.0 5
239790 temperature4 03:39 01/10/2021 35.660378 139.67668 21.1 20.0 20.0 0.0 0.0 5
239789 temperature4 03:07 01/10/2021 35.660378 139.67668 21.1 20.2 19.9 0.0 0.0 5
239788 temperature4 02:34 01/10/2021 35.660378 139.67668 21.1 20.3 20.1 0.0 0.0 5
239787 temperature4 02:01 01/10/2021 35.660378 139.67668 21.1 20.3 20.3 0.0 0.0 5
239786 temperature4 01:29 01/10/2021 35.660378 139.67668 21.1 20.3 20.4 0.0 0.0 5
239785 temperature4 00:56 01/10/2021 35.660378 139.67668 21.1 20.3 20.3 0.0 0.0 5
239784 temperature4 00:24 01/10/2021 35.660378 139.67668 21.1 20.3 20.4 0.0 0.0 5
239783 temperature4 23:51 30/09/2021 35.660378 139.67668 21.1 20.3 20.4 0.0 0.0 5
239782 temperature4 23:18 30/09/2021 35.660378 139.67668 21.1 20.3 20.4 0.0 0.0 5
239781 temperature4 22:46 30/09/2021 35.660378 139.67668 21.1 20.3 20.4 0.0 0.0 5
239780 temperature4 22:13 30/09/2021 35.660378 139.67668 21.1 20.4 20.4 0.0 0.0 5
239779 temperature4 21:41 30/09/2021 35.660378 139.67668 21.1 20.3 20.4 0.0 0.0 5
239778 temperature4 21:08 30/09/2021 35.660378 139.67668 21.1 20.3 20.4 0.0 0.0 5
239777 temperature4 20:35 30/09/2021 35.660378 139.67668 21.2 20.3 20.4 0.0 0.0 5
239776 temperature4 20:03 30/09/2021 35.660378 139.67668 21.1 20.3 20.4 0.0 0.0 5
239775 temperature4 19:30 30/09/2021 35.660378 139.67668 21.2 20.3 20.4 0.0 0.0 5
239774 temperature4 18:57 30/09/2021 35.660378 139.67668 21.1 20.3 20.4 0.0 0.0 5
239773 temperature4 18:24 30/09/2021 35.660378 139.67668 21.1 20.3 20.4 0.0 0.0 5
239772 temperature4 17:51 30/09/2021 35.660378 139.67668 21.1 20.3 20.4 0.0 0.0 5
239771 temperature4 17:18 30/09/2021 35.660378 139.67668 21.1 20.3 20.4 0.0 0.0 5
239770 temperature4 16:46 30/09/2021 35.660378 139.67668 21.1 20.3 20.3 0.0 0.0 5
239769 temperature4 16:13 30/09/2021 35.660378 139.67668 21.1 20.3 20.4 0.0 0.0 5
239768 temperature4 15:40 30/09/2021 35.660378 139.67668 21.1 20.3 20.2 0.0 0.0 5
239767 temperature4 15:08 30/09/2021 35.660378 139.67668 21.1 20.3 19.9 0.0 0.0 5
239766 temperature4 14:35 30/09/2021 35.660378 139.67668 21.1 20.3 20.0 0.0 0.0 5
239765 temperature4 14:02 30/09/2021 35.660378 139.67668 21.1 20.3 19.9 0.0 0.0 5
239764 temperature4 13:29 30/09/2021 35.660378 139.67668 21.1 20.2 20.0 0.0 0.0 5
239763 temperature4 12:56 30/09/2021 35.660378 139.67668 21.1 20.2 19.9 0.0 0.0 5
239762 temperature4 12:24 30/09/2021 35.660378 139.67668 21.1 20.3 19.9 0.0 0.0 5
239761 temperature4 11:51 30/09/2021 35.660378 139.67668 21.1 20.1 19.9 0.0 0.0 5
239760 temperature4 11:18 30/09/2021 35.660378 139.67668 21.1 19.9 19.9 0.0 0.0 5
239759 temperature4 10:46 30/09/2021 35.660378 139.67668 20.8 19.8 19.9 0.0 0.0 5
239758 temperature4 10:13 30/09/2021 35.660378 139.67668 20.7 19.9 19.9 0.0 0.0 5
239757 temperature4 09:40 30/09/2021 35.660378 139.67668 20.8 19.8 19.9 0.0 0.0 5
239756 temperature4 09:08 30/09/2021 35.660378 139.67668 20.9 19.9 19.9 0.0 0.0 5
239755 temperature4 08:35 30/09/2021 35.660378 139.67668 20.6 19.8 19.9 0.0 0.0 5
239754 temperature4 08:03 30/09/2021 35.660378 139.67668 20.6 19.8 19.9 0.0 0.0 5
239753 temperature4 07:30 30/09/2021 35.660378 139.67668 20.6 19.8 19.9 0.0 0.0 5